• In United Kingdom
  • List of Countries
  • For 7 days
  • Water Temperature
  • Satellite Maps
  • Weather Map
  • Weather Widgets
  • user-avatar
    Login

    Hourly Weather Batina

    Today, 20 October, Friday

    Time Temperature Precipitation Wind Pressure Humidity
    00:00 +13°C° 0 mm 5 mps 669 mmHg 72%
    01:00 +13°C° 0.8 mm 4 mps 669 mmHg 74%
    02:00 +12°C° 0.8 mm 3 mps 669 mmHg 76%
    03:00 +13°C° 0.8 mm 2 mps 669 mmHg 78%
    04:00 +13°C° 0.2 mm 2 mps 669 mmHg 79%
    05:00 +13°C° 0.2 mm 1 mps 669 mmHg 80%
    06:00 +13°C° 0 mm 1 mps 669 mmHg 80%
    07:00 +13°C° 0.2 mm 2 mps 669 mmHg 77%
    08:00 +14°C° 0.2 mm 2 mps 670 mmHg 73%
    09:00 +13°C° 0.2 mm 3 mps 670 mmHg 69%
    10:00 +13°C° 0.6 mm 3 mps 670 mmHg 69%
    11:00 +13°C° 0.6 mm 4 mps 670 mmHg 69%
    12:00 +13°C° 0.6 mm 4 mps 670 mmHg 68%
    13:00 +13°C° 0.4 mm 4 mps 670 mmHg 69%
    14:00 +13°C° 0.4 mm 4 mps 670 mmHg 70%
    15:00 +13°C° 0.4 mm 4 mps 670 mmHg 70%
    16:00 +13°C° 0 mm 4 mps 671 mmHg 72%
    17:00 +13°C° 0 mm 4 mps 671 mmHg 73%
    18:00 +12°C° 0 mm 3 mps 672 mmHg 75%
    19:00 +12°C° 0 mm 3 mps 672 mmHg 76%
    20:00 +12°C° 0 mm 3 mps 672 mmHg 78%
    21:00 +12°C° 0 mm 3 mps 673 mmHg 80%
    22:00 +12°C° 0 mm 3 mps 673 mmHg 81%
    23:00 +11°C° 0 mm 3 mps 673 mmHg 82%

    Tomorrow, 21 October, Saturday

    Time Temperature Precipitation Wind Pressure Humidity
    00:00 +11°C° 0 mm 3 mps 673 mmHg 83%
    01:00 +11°C° 0 mm 3 mps 673 mmHg 84%
    02:00 +12°C° 0 mm 2 mps 673 mmHg 85%
    03:00 +12°C° 0 mm 2 mps 673 mmHg 86%
    04:00 +12°C° 0 mm 2 mps 673 mmHg 86%
    05:00 +12°C° 0 mm 2 mps 673 mmHg 86%
    06:00 +12°C° 0 mm 2 mps 673 mmHg 86%
    07:00 +13°C° 0 mm 2 mps 674 mmHg 81%
    08:00 +14°C° 0 mm 2 mps 675 mmHg 76%
    09:00 +15°C° 0 mm 2 mps 675 mmHg 70%
    10:00 +16°C° 0 mm 2 mps 676 mmHg 65%
    11:00 +17°C° 0 mm 2 mps 676 mmHg 60%
    12:00 +18°C° 0 mm 2 mps 676 mmHg 55%
    13:00 +19°C° 0 mm 2 mps 676 mmHg 54%
    14:00 +19°C° 0 mm 2 mps 676 mmHg 53%
    15:00 +19°C° 0 mm 3 mps 675 mmHg 52%
    16:00 +18°C° 0 mm 2 mps 675 mmHg 56%
    17:00 +18°C° 0 mm 2 mps 675 mmHg 59%
    18:00 +17°C° 0 mm 2 mps 675 mmHg 63%
    19:00 +16°C° 0 mm 2 mps 676 mmHg 66%
    20:00 +16°C° 0 mm 1 mps 676 mmHg 69%
    21:00 +15°C° 0 mm 1 mps 676 mmHg 72%
    22:00 +15°C° 0 mm 1 mps 676 mmHg 73%
    23:00 +14°C° 0 mm 0 mps 676 mmHg 74%

    Day after tomorrow, 22 October, Sunday

    Time Temperature Precipitation Wind Pressure Humidity
    00:00 +13°C° 0 mm 0 mps 675 mmHg 76%
    01:00 +13°C° 0 mm 0 mps 675 mmHg 76%
    02:00 +13°C° 0 mm 0 mps 675 mmHg 77%
    03:00 +13°C° 0 mm 0 mps 675 mmHg 77%
    04:00 +13°C° 0 mm 1 mps 675 mmHg 78%
    05:00 +13°C° 0 mm 1 mps 675 mmHg 78%
    06:00 +13°C° 0 mm 1 mps 675 mmHg 79%
    07:00 +15°C° 0 mm 1 mps 675 mmHg 72%
    08:00 +16°C° 0 mm 1 mps 676 mmHg 64%
    09:00 +19°C° 0 mm 1 mps 677 mmHg 57%
    10:00 +18°C° 0 mm 2 mps 677 mmHg 54%
    11:00 +19°C° 0 mm 2 mps 676 mmHg 50%
    12:00 +20°C° 0 mm 3 mps 676 mmHg 47%
    13:00 +20°C° 0 mm 3 mps 676 mmHg 46%
    14:00 +20°C° 0 mm 3 mps 675 mmHg 45%
    15:00 +21°C° 0 mm 2 mps 675 mmHg 44%
    16:00 +20°C° 0 mm 3 mps 675 mmHg 48%
    17:00 +19°C° 0 mm 3 mps 675 mmHg 52%
    18:00 +18°C° 0 mm 3 mps 675 mmHg 55%
    19:00 +18°C° 0 mm 3 mps 675 mmHg 60%
    20:00 +17°C° 0 mm 2 mps 675 mmHg 65%
    21:00 +16°C° 0 mm 2 mps 676 mmHg 70%
    22:00 +16°C° 0 mm 2 mps 675 mmHg 74%
    23:00 +15°C° 0 mm 2 mps 675 mmHg 77%

    23 October, Monday

    Time Temperature Precipitation Wind Pressure Humidity
    00:00 +15°C° 0 mm 2 mps 675 mmHg 80%
    01:00 +14°C° 0 mm 2 mps 674 mmHg 81%
    02:00 +14°C° 0 mm 2 mps 674 mmHg 83%
    03:00 +14°C° 0 mm 2 mps 674 mmHg 84%
    04:00 +13°C° 0 mm 2 mps 674 mmHg 83%
    05:00 +13°C° 0 mm 2 mps 674 mmHg 83%
    06:00 +13°C° 0 mm 2 mps 674 mmHg 83%
    07:00 +14°C° 0 mm 2 mps 675 mmHg 77%
    08:00 +15°C° 0 mm 2 mps 675 mmHg 72%
    09:00 +16°C° 0 mm 2 mps 676 mmHg 66%
    10:00 +17°C° 0 mm 3 mps 676 mmHg 62%
    11:00 +18°C° 0 mm 3 mps 676 mmHg 57%
    12:00 +18°C° 0 mm 3 mps 676 mmHg 53%
    13:00 +18°C° 0 mm 4 mps 675 mmHg 51%
    14:00 +18°C° 0 mm 4 mps 675 mmHg 48%
    15:00 +17°C° 0 mm 5 mps 675 mmHg 46%
    16:00 +17°C° 0 mm 4 mps 675 mmHg 49%
    17:00 +15°C° 0 mm 4 mps 675 mmHg 52%
    18:00 +14°C° 0 mm 3 mps 675 mmHg 55%
    19:00 +14°C° 0 mm 3 mps 675 mmHg 59%
    20:00 +14°C° 0 mm 2 mps 675 mmHg 62%
    21:00 +13°C° 0 mm 2 mps 675 mmHg 65%
    22:00 +13°C° 0 mm 2 mps 675 mmHg 67%
    23:00 +12°C° 0 mm 2 mps 675 mmHg 69%

    24 October, Tuesday

    Time Temperature Precipitation Wind Pressure Humidity
    00:00 +12°C° 0 mm 2 mps 674 mmHg 71%
    01:00 +12°C° 0 mm 2 mps 674 mmHg 72%
    02:00 +10°C° 0 mm 2 mps 674 mmHg 72%
    03:00 +10°C° 0 mm 2 mps 674 mmHg 73%
    04:00 +10°C° 0 mm 2 mps 674 mmHg 72%
    05:00 +10°C° 0 mm 2 mps 674 mmHg 71%
    06:00 +10°C° 0 mm 2 mps 674 mmHg 70%
    07:00 +12°C° 0 mm 2 mps 674 mmHg 62%
    08:00 +14°C° 0 mm 2 mps 675 mmHg 54%
    09:00 +16°C° 0 mm 2 mps 676 mmHg 46%
    10:00 +17°C° 0 mm 2 mps 676 mmHg 41%
    11:00 +18°C° 0 mm 2 mps 676 mmHg 36%
    12:00 +19°C° 0 mm 3 mps 676 mmHg 31%
    13:00 +20°C° 0 mm 3 mps 675 mmHg 30%
    14:00 +20°C° 0 mm 3 mps 675 mmHg 30%
    15:00 +20°C° 0 mm 4 mps 675 mmHg 29%
    16:00 +19°C° 0 mm 3 mps 675 mmHg 33%
    17:00 +18°C° 0 mm 2 mps 674 mmHg 36%
    18:00 +17°C° 0 mm 2 mps 674 mmHg 40%
    19:00 +16°C° 0 mm 2 mps 674 mmHg 42%
    20:00 +16°C° 0 mm 1 mps 674 mmHg 43%
    21:00 +15°C° 0 mm 1 mps 674 mmHg 45%
    22:00 +15°C° 0 mm 1 mps 674 mmHg 45%
    23:00 +14°C° 0 mm 1 mps 674 mmHg 45%

    25 October, Wednesday

    Time Temperature Precipitation Wind Pressure Humidity
    00:00 +14°C° 0 mm 1 mps 674 mmHg 45%
    01:00 +14°C° 0 mm 1 mps 673 mmHg 44%
    02:00 +13°C° 0 mm 1 mps 673 mmHg 44%
    03:00 +13°C° 0 mm 1 mps 673 mmHg 43%
    04:00 +13°C° 0 mm 1 mps 673 mmHg 43%
    05:00 +13°C° 0 mm 1 mps 673 mmHg 44%
    06:00 +12°C° 0 mm 1 mps 673 mmHg 44%
    07:00 +14°C° 0 mm 1 mps 673 mmHg 39%
    08:00 +16°C° 0 mm 1 mps 674 mmHg 34%
    09:00 +19°C° 0 mm 1 mps 675 mmHg 29%
    10:00 +19°C° 0 mm 2 mps 675 mmHg 29%
    11:00 +19°C° 0 mm 2 mps 675 mmHg 29%
    12:00 +20°C° 0 mm 2 mps 675 mmHg 29%
    13:00 +20°C° 0 mm 2 mps 675 mmHg 28%
    14:00 +21°C° 0 mm 3 mps 675 mmHg 28%
    15:00 +21°C° 0 mm 3 mps 675 mmHg 27%
    16:00 +20°C° 0 mm 3 mps 675 mmHg 31%
    17:00 +18°C° 0 mm 2 mps 675 mmHg 36%
    18:00 +17°C° 0 mm 2 mps 675 mmHg 40%
    19:00 +16°C° 0 mm 2 mps 675 mmHg 44%
    20:00 +15°C° 0 mm 2 mps 675 mmHg 47%
    21:00 +15°C° 0 mm 2 mps 675 mmHg 51%
    22:00 +14°C° 0 mm 1 mps 675 mmHg 53%
    23:00 +13°C° 0 mm 1 mps 675 mmHg 55%
    Show more